Regional Weather Roundup
Issued by NWS

Home | Current Version | Previous Version | Graphics & Text | Print | Product List | Glossary On
Versions: 1 2 3 4 5 6 7 8 9 10 11 12 13 14 15 16 17 18 19 20 21 22 23 24 25 26 27 28 29 30 31 32 33 34 35 36 37 38 39 40 41 42 43 44 45 46 47 48 49 50
000
ASUS43 KMKX 280700
RWRWI

WISCONSIN REGIONAL WEATHER ROUNDUP
NATIONAL WEATHER SERVICE MILWAUKEE/SULLIVAN WI
200 AM CDT TUE JUL 28 2015

NOTE: "FAIR" INDICATES FEW OR NO CLOUDS BELOW 12,000 FEET WITH NO
SIGNIFICANT WEATHER AND/OR OBSTRUCTIONS TO VISIBILITY.

WIZ001-002-006>008-014>016-023>028-280800-
NORTHWEST WISCONSIN

CITY           SKY/WX    TMP DP  RH WIND       PRES   REMARKS
SUPERIOR ARPT  CLOUDY    68  66  92 CALM      29.90F
ASHLAND        CLEAR     63  62  97 CALM      29.94F
HAYWARD        CLEAR     71  64  78 SE6       29.95F
SIREN          CLEAR     73  67  84 SE6       29.92F
CUMBERLAND     CLEAR     68  64  88 SE5       29.95F
RICE LAKE      CLEAR     72  66  83 SE8       29.96F
CHETEK         CLEAR     71  67  88 SE5       29.95F
LADYSMITH      CLEAR     70  64  80 E5        30.00S
EAU CLAIRE     NOT AVBL
MENOMONIE      CLEAR     71  69  93 SE5       29.94F
NEW RICHMOND   CLEAR     71  69  93 SE3       29.92F
OSCEOLA        PTCLDY    73  73  99 SE7       29.93F
$$

WIZ003>005-009-010-017-018-280800-
NORTH CENTRAL WISCONSIN

CITY           SKY/WX    TMP DP  RH WIND       PRES   REMARKS
MANITOWISH WTR CLEAR     67  64  90 S5        30.03S
ARBOR VITAE    CLEAR     72  65  77 S5        30.03F
WOODRUFF       CLEAR     72  65  77 S5        30.03F
RHINELANDER    CLEAR     68  61  78 S3        30.05S
EAGLE RIVER    CLEAR     61  60  98 CALM      30.04F
LAND O LAKES   CLEAR     59  58  97 CALM      30.05F
PHILLIPS       CLEAR     68  63  85 SE3       30.00F
TOMAHAWK       CLEAR     64  61  91 CALM      30.04S
MEDFORD        CLEAR     67  63  86 SE3       30.02S
MERRILL        NOT AVBL
$$

WIZ029-030-035-036-043>047-280800-
CENTRAL WISCONSIN

CITY           SKY/WX    TMP DP  RH WIND       PRES   REMARKS
WAUSAU         CLEAR     67  63  87 E5        30.02S
MOSINEE        CLEAR     64  63  94 SE5       30.03F
MARSHFIELD     CLEAR     69  60  73 SE5       30.01F
STEVENS POINT  CLEAR     63  60  90 CALM      30.03S
WAUPACA        CLEAR     65  64  97 CALM      30.03S
WAUTOMA        NOT AVBL
WISC RAPIDS    CLEAR     69  61  75 SE3       30.02F
CAMP DOUGLAS   NOT AVBL
$$

WIZ011>013-019>022-031-037>040-048>050-280800-
NORTHEAST WISCONSIN

CITY           SKY/WX    TMP DP  RH WIND       PRES   REMARKS
ANTIGO         CLEAR     61  60  96 S5        30.05F
SHAWANO        CLEAR     70  63  79 CALM      30.03S
OCONTO         PTCLDY    59  59 100 CALM      30.02F
STURGEON BAY   CLEAR     66  61  82 S6        30.05F
GREEN BAY      CLEAR     64  62  93 S3        30.02F FOG
MANITOWOC      NOT AVBL
APPLETON       CLEAR     70  63  78 CALM      30.04S
CLINTONVILLE   FOG       63  61  94 CALM      30.02S VSB 1/4
OSHKOSH        CLEAR     64  60  87 S3        30.02S
$$

WIZ032>034-041-042-053>061-280800-
SOUTHWEST WISCONSIN

CITY           SKY/WX    TMP DP  RH WIND       PRES   REMARKS
LA CROSSE      PTCLDY    72  69  90 SE8       29.95S
SPARTA         PTCLDY    69  65  88 CALM      29.99S
VIROQUA        PTCLDY    70  70 100 E6        30.00S
BOSCOBEL       CLEAR     70  67  90 NE3       29.98S
PRAIRIE DU CHI CLEAR     71  68  92 CALM      29.96S
PLATTEVILLE    CLEAR     70  66  87 E8        29.99S
$$

WIZ056-057-062-063-064-067-068-280800-
SOUTH CENTRAL WISCONSIN

CITY           SKY/WX    TMP DP  RH WIND       PRES   REMARKS
REEDSBURG      CLEAR     67  64  93 E3        29.99F
BARABOO/DELLS  CLEAR     71  61  70 SE5       30.00F
LONE ROCK      NOT AVBL
MINERAL POINT  CLEAR     72  63  73 SE6       30.00F
MADISON        CLEAR     70  62  76 MISG      30.00F
MIDDLETON      CLEAR     67  64  87 SE6       30.02S
WATERTOWN      CLEAR     63  63 100 CALM      30.02S
MONROE         CLEAR     68  63  83 E5        30.01S
JANESVILLE     CLEAR     68  64  88 CALM      30.01R
$$

WIZ051-052-058>065-066-070>072-280800-
SOUTHEAST WISCONSIN

CITY           SKY/WX    TMP DP  RH WIND       PRES   REMARKS
MILWAUKEE      PTCLDY    70  64  81 NW3       30.03R
WAUKESHA       CLEAR     63  59  88 CALM      30.05R
MILWAUKEE/TIMM CLEAR     68  63  83 CALM      30.04S
RACINE         CLEAR     70  63  78 CALM      30.04R
BURLINGTON     CLEAR     60  60  98 CALM      30.03R
KENOSHA        CLEAR     64  62  93 N3        30.03R
FOND DU LAC    CLEAR     64  61  90 CALM      30.03S
SHEBOYGAN      CLEAR     61  59  93 CALM      30.04S
WEST BEND      CLEAR     59  55  88 CALM      30.05S
JUNEAU           N/A     65  61  85 E7        30.04S
$$

LSZ147-162-280800-
LAKE SUPERIOR

STATION/POSITION TIME  TEMP    WIND        PRES    WAVE
                       AIR SEA DIR/SP/G            HT/PER
                 (UTC) (F)     (DEG/KT/KT) (MB)    (FT/S)
W MID LAKE BUOY  0550   66 62  150/  6/  8 1014.3S   0
DEVILS ISLAND    0600   75     150/  7/  8 1013.8F
PORT WING        0600   77     150/  5/ 12 1013.5F
SAXON HARBOR     0600   70                 1014.2
$$

LMZ867-665-643>646-280800-
LAKE MICHIGAN

STATION/POSITION TIME  TEMP    WIND        PRES    WAVE
                       AIR SEA DIR/SP/G            HT/PER
                 (UTC) (F)     (DEG/KT/KT) (MB)    (FT/S)
CHAMBERS ISLAND  0600   67     170/  2/  5 1016.6S
S GREEN BAY BUOY 0530   76 76  200/  4/  6 1018.1R
N MID LAKE BUOY  0550   71 69  190/  6/  8 1016.4R   0
NORTHPORT PIER   0600   70     190/  4/ 16 1016.6S
SISTER BAY       0644   69     160/  7/  9   N/A
ALGOMA LAKESHORE 0612             CALM       N/A
KEWAUNEE LAKESHO 0600   64     300/  2/  3 1016.7R
SHEBOYGAN LAKESH 0600   71     240/  1/  2 1017.2R
PORT WASHINGTON  0600   71      CALM  /  1 1017.6R
ATWATER BUOY     0600   72      CALM  /  2 1018.0R
MILWAUKEE LAKESH 0600   71      80/  3/  4   N/A
KENOSHA   LAKESH 0600   72     300/  1/  3 1015.9S
$$

TC  - TEMPERATURE IN CELSIUS
VSB - VISIBILITY IN STATUTE MILES
WCI - WIND CHILL INDEX
HX  - HEAT INDEX



USA.gov is the U.S. government's official web portal to all federal, state and local government web resources and services.